Regional Weather Roundup
Issued by NWS

Home | Current Version | Previous Version | Text Only | Print | Product List | Glossary On
Versions: 1 2 3 4 5 6 7 8 9 10 11 12 13 14 15 16 17 18 19 20 21 22 23 24 25 26 27 28 29 30 31 32 33 34 35 36 37 38 39 40 41 42 43 44 45 46 47 48 49 50
000
ASUS43 KDMX 301708
RWRIA

WEATHER ROUNDUP FOR IOWA
NATIONAL WEATHER SERVICE DES MOINES IA
1200 PM CDT SAT APR 30 2016

NOTE: "FAIR" INDICATES FEW OR NO CLOUDS BELOW 12,000 FEET WITH NO
SIGNIFICANT WEATHER AND/OR OBSTRUCTIONS TO VISIBILITY.

* - THESE STATIONS ARE NOT NWS STATIONS...THUS NOT UNDER NWS
QUALITY CONTROL.  THEY ALSO DO NOT REPORT WEATHER SUCH
AS PRECIPITATION OR FOG.

IAZ001>003-012>014-020>022-031>034-043>046-301800-
   NORTHWEST IOWA

CITY           SKY/WX    TMP DP  RH WIND       PRES   REMARKS
CARROLL *      CLOUDY    45  45 100 NE20G26   29.78F
CHEROKEE *     LGT RAIN  43  43 100 NE22G35   29.78F
DENISON *      LGT RAIN  45  43  93 E18G24    29.75S
LE MARS *      RAIN      45  41  87 NE24G33   29.81F
ORANGE CITY *  RAIN      43  41  93 E20G31    29.82F
SHELDON *      HVY RAIN  43  43 100 NE30G37   29.85F
SIOUX CITY     CLOUDY    46  41  82 E20G29    29.78R
SPENCER        RAIN      44  41  89 NE25G36   29.88F FOG
STORM LAKE *   LGT RAIN  43  43 100 E33G40    29.80F
$$

IAZ055>058-069>071-079>083-090>094-301800-
   SOUTHWEST IOWA

CITY           SKY/WX    TMP DP  RH WIND       PRES   REMARKS
ATLANTIC *     CLOUDY    46  45  93 NE16      29.74R
AUDUBON *      DRIZZLE   45  43  93 NE16      29.76F
CLARINDA *       N/A    N/A N/A N/A MISG        N/A
COUNCIL BLFS * PTSUNNY   46  46 100 E13       29.72R FOG
CRESTON *      CLOUDY    48  46  93 E17G25    29.72S
HARLAN  *      CLOUDY    46  45  93 E20G29    29.76S
LAMONI         CLOUDY    50  49  96 E6        29.71R FOG
RED OAK *      CLOUDY    50  46  87 E15       29.71R
SHENANDOAH *   CLOUDY    52  52 100 E10G18    29.69S
$$

IAZ047>049-059>061-072>074-084-301800-
   CENTRAL IOWA

CITY           SKY/WX    TMP DP  RH WIND       PRES   REMARKS
AMES           HVY RAIN  46  46 100 E15       29.80R FOG
ANKENY *       RAIN      46  46 100 E7G14     29.80R
BOONE *        HVY RAIN  45  45 100 E8G22     29.83R VSB 1
CHARITON *     CLOUDY    50  48  93 E13       29.74R
DES MOINES     LGT RAIN  48  45  89 NE12      29.77S FOG
GRINNELL*      HVY RAIN  46  46 100 E21G26    29.79R
KNOXVILLE *    LGT RAIN  48  46  93 E15       29.74F
MARSHALLTOWN   LGT RAIN  46  44  93 E23G35    29.80F FOG
NEWTON *       FOG       46  46 100 E16G22    29.79R VSB 3/4
PELLA *        RAIN      48  46  93 E15       29.78S
$$

IAZ004>006-015-016-023>025-035-036-301800-
   NORTH CENTRAL IOWA

CITY           SKY/WX    TMP DP  RH WIND       PRES   REMARKS
ALGONA *       LGT RAIN  45  45 100 NE22G29   29.88F
CLARION *      LGT RAIN  45  45 100 E29G39    29.83F
ESTHERVILLE    LGT RAIN  43  42  97 NE22G31   29.92F FOG
FORT DODGE *   CLOUDY    45  39  81 NE18G24   29.83F
MASON CITY     LGT RAIN  45  43  93 E23G31    29.93S
FOREST CITY *  LGT RAIN  43  43 100 NE14G28   29.92S
WEBSTER CITY * RAIN      45  45 100 E29G37    29.77F
IOWA FALLS *   RAIN      46  45  93 NE22G30   29.83F
$$

IAZ007>011-017>019-026>030-037>042-050>054-066-301800-
   NORTHEAST IOWA

CITY           SKY/WX    TMP DP  RH WIND       PRES   REMARKS
CEDAR RAPIDS   RAIN      48  48 100 E23G31    29.81F FOG
CHARLES CITY * LGT RAIN  45  45 100 E20G29    29.93F
CLINTON *      LGT RAIN  48  47  96 E18       29.89R FOG
DECORAH *      LGT RAIN  45  41  87 NE13G23   29.96F
MONTICELLO *   LGT RAIN  48  45  87 E17G25    29.87F
OELWEIN *      CLOUDY    46  46 100 E21       29.89F FOG
WATERLOO       LGT RAIN  47  43  86 NE26G36   29.86F FOG
$$

IAZ064-065-067-068-078-301800-
   EAST CENTRAL IOWA

CITY           SKY/WX    TMP DP  RH WIND       PRES   REMARKS
DAVENPORT      RAIN      49  46  90 E22G30    29.87S FOG
IOWA CITY      RAIN      49  47  93 E14G25    29.81F FOG
MT. PLEASANT * LGT RAIN  54  54 100 E14       29.77S
MUSCATINE *    LGT RAIN  50  48  93 E18G26    29.80F
QUAD CITIES    RAIN      50  47  89 E22G31    29.84S FOG
$$

IAZ062-063-075>077-085>089-095>099-301800-
   SOUTHEAST IOWA

CITY           SKY/WX    TMP DP  RH WIND       PRES   REMARKS
BURLINGTON     HVY RAIN  52  32  46 E16G22    29.75F
FAIRFIELD *    LGT RAIN  50  50 100 E17       29.76S
FORT MADISON * LGT RAIN  52  52 100 E13G22    29.75F
KEOKUK *       LGT RAIN  55  54  94 E14       29.73F
OSKALOOSA *    LGT RAIN  48  48 100 E16       29.77S
OTTUMWA        LGT RAIN  49  48  97 E18       29.75F FOG
WASHINGTON *   LGT RAIN  50  50 100 E16       29.79S VSB 1
$$

ABBREVIATIONS USED IN REMARKS
   TC - TEMPERATURES IN CELSIUS
  WCI - WIND CHILL INDEX
   HX - HEAT INDEX
  VSB - VISIBILITY
$$




USA.gov is the U.S. government's official web portal to all federal, state and local government web resources and services.